Tracking 25701 objects as of 3-Jul-2022
HD Live streaming from Space Station
objects crossing your sky now

FENGYUN 1C DEB

Track FENGYUN 1C DEB now!
10-day predictions


NORAD ID: 31033
Int'l Code: 1999-025BEB
Perigee: 702.6 km
Apogee: 930.0 km
Inclination: 98.4 °
Period: 101.1 minutes
Semi major axis: 7187 km
RCS: 0.0023 m2 (small)
Launch date: May 10, 1999
Source: People's Republic of China (PRC)
Launch site: Taiyaun Space Center, China (TSC)

Note: This is SATELLITE DEBRIS
aabbcc
Your satellite tracking list
Your tracking list is empty




NASA's NSSDC Master Catalog

Two Line Element Set (TLE):
1 31033U 99025BEB 22183.84061580  .00000139  00000-0  68651-4 0  9996
2 31033  98.3738 198.7466 0158186 208.1314 327.8791 14.24800688794041
Source of the keplerian elements: AFSPC